STARLINK-5184, 54087

Orbit data source: Space-Track

STARLINK-5184, 54087 is a payload satellite owned by SpaceX/Seattle (US) in LEO that was launched on Thu, 20 Oct 2022 UTC via an FALCON 9 launch vehicle from the Air Force Eastern Test Range (AFETR). Payload-class satellites include a variety of spacecraft equipped with specific instruments for various scientific and technological missions. These include communications satellites like Starlink; space stations such as the ISS; scientific satellites like the Hubble; Earth observation satellites from companies like Planet Labs, Umbra, and HawkEye 360; GPS; miniature CubeSats for education and research; and military/defense satellites.

Loading next visibility...
Identifier
54087, 2022-136AN
Orbit
LEO
Last TLE update
13 hours ago
Origin
Manufacturer
SpaceX/Seattle
Mission
Operational Commercial Communications
Bus & Motor
STARLINK, Unknown motor
Mass
305 kg wet, ~290 kg dry
Launch date (UTC)
2022-10-20 (3 years ago)
Launch vehicle
FALCON 9
Launch site
Air Force Eastern Test Range (AFETR)
Object type
Payload
Rocket body
Debris
Shape & HBR
Box + 1 Pan, 8.86 m
Radar Cross Section
13.562 m², Large (>1 m²)

Expand to show TLE details & history

TLE from 13 hours ago
0 STARLINK-5184
1 54087U 22136AN  25181.87403062  .00001019  00000-0  82112-4 0  9994
2 54087  53.2191  24.2038 0001307  91.9872 268.1270 15.08841289148974
Epoch: 2025-06-30T20:58Z
TLE epoch observation values (Epoch: 2025-06-30T20:58:36.245Z)
Latitude
-0.00002°
Longitude
150.37519°
Altitude
540.667 km
Speed
7.593 km/s
True Right ascension
01h 36m 48s
True Declination
0° 00' 00"
Sunlit
Object was in daylight at epoch
Visualization orbit readout
Latitude
46.8227°
Longitude
-84.50466°
Altitude
544.001 km
Speed
7.596 km/s
Apparent Right ascension
09h 53m 49s
Apparent Declination
5° 39' 06"
Sunlit
Object is in daylight
Visualization observer readout
Local Sidereal Time
21:50:27
Azimuth
358.829° N
Elevation
-44.426°
Doppler factor
1
Orbital elements
Apogee altitude
540.888 km
Perigee altitude
539.08 km
Semi-major axis
6,918.121 km
Eccentricity
0.00013
Inclination
53.2191°
RAAN
24.2038°
Arg. of periapsis
91.9872°
True anomaly
Unknown
Mean anomaly
268.127°
Eccentric anomaly
Unknown
Mean motion
3.77191 °/min
Orbital period
95.44 mins
BSTAR
0.000082112
Loading maneuver chart data...
Loading SW <> Apogee altitude chart data...
Loading historical data...
Loading historical data...
Loading historical data...
Loading historical data...
Loading historical data...
Loading historical data...
Loading historical data...

STARLINK-5184 Visibility forecast

Observer location: undefined°, undefined°

Span
Click to sort rows by Start time (UTC) header in descending order
Start Az.
Max El. time (UTC)
Max El. Az.
Max El.
End time (UTC)
End Az.
6 mins2025-07-01 16:15:03.116Z228.904° WSW2025-07-01 16:17:03.116Z228.643° WSW44.485°2025-07-01 16:21:03.116Z50.018° ENE
5 mins2025-07-01 17:55:03.116Z300.35° NW2025-07-01 17:57:03.116Z337.332° NNW19.432°2025-07-01 18:00:03.116Z26.745° NE
4 mins2025-07-01 21:17:03.116Z355.962° N2025-07-01 21:18:03.116Z15.222° NNE18.634°2025-07-01 21:21:03.116Z66.41° ENE
6 mins2025-07-01 22:56:03.116Z313.344° NW2025-07-01 22:58:03.116Z358.635° N44.673°2025-07-01 23:02:03.116Z128.518° SE
|